Location: *
(40.4000°N, 15.1200°E)
Time: 06:44:47
(UTC+00:00)

SL-24 R/B - Pass Details

Date: 09 April 2020
Orbit: 504 x 1003 km, 97.4° (Epoch: 25 May)

Event Time Altitude Azimuth Distance (km) Brightness Sun altitude
Rises 18:47:34 0° 14° (NNE) 2,788 7.6 -14.4°
Reaches altitude 10° 18:49:48 10° 17° (NNE) 1,832 6.6 -14.8°
Maximum altitude 18:53:41 69° 101° (E) 560 3.6 -15.5°
Drops below altitude 10° 18:57:18 10° 185° (S) 1,714 6.1 -16.1°
Enters shadow 18:59:18 - 188° (S) 2,571 7.1 -16.4°
